sat.trackr.live / text

‹ back to catalog

ONEWEB-0666

NORAD 55826 · 2023-029AG

PAYLOAD ACTIVE UNKNOWN

§ Identity

Operator
Country
UK
Launch date
2023-03-09
Launch site
AFETR
Launch vehicle
Mass (kg)
RCS (m²)

Purposes: comms

External: N2YO · Heavens-Above · Gunter

§ Orbital elements

Epoch: 2026-09-19T22:56:34.054080Z

Period
109.03 min
Inclination
87.9132°
Eccentricity
0.0001619
Mean motion
13.20772648 rev/d
Perigee alt
1,180.5 km
Apogee alt
1,183.0 km
Semi-major
7,559.9 km
B*
5.1021e-5
RAAN
255.5569°
Arg perigee
107.4910°
Mean anomaly
252.6401°
Rev number
17,366

§ Raw data

ONEWEB-06661 55826U 23029AG  26262.95594970  .00000034  00000+0  51021-4 0  99972 55826  87.9132 255.5569 0001619 107.4910 252.6401 13.20772648173667

JSON: /api/v1/satellites/55826 · /tle

For live sub-satellite position, see the globe view (requires WebGL).

§ Visibility from observer

Set your observer location to see the next 7 days of passes ≥ 10°. The values pass through the URL so the page stays shareable.

No JS? Fill the form by hand. The geolocation button needs JavaScript.